DECAYED

OBJECT R, 57019 (Decayed)

Orbit data source: Space-Track

You're viewing an Uncataloged Satellite

Recently launched and/or uncataloged satellites may have evolving metadata. Metadata may include but not limited to: Owner, Maufacturer, Bus, Motor, and Mission.

OBJECT R, 57019 was a Chinese satellite in SSO that was launched on Thu, 15 Jun 2023 UTC via a CHANG ZHENG 2D launch vehicle from the Taiyaun Space Center, China (TSC). Unknown objects in Earth's orbit typically refer to objects detected orbiting the Earth but have not yet been identified or cataloged. These objects could be anything from previously untracked satellites, spent rocket stages, debris from satellite collisions, or even natural meteoroids temporarily captured by Earth's gravity. This object's orbit decayed before it could be identified.

Loading next visibility...
Identifier
57019, 2023-085R
Orbit
Decayed
Country
Flag of CNCN / PRC
Related business
None
Manufacturer
Unknown
Mission
Decayed Commercial Imaging
Bus & Motor
Unknown
Mass
Unknown
Launch date (UTC)
2023-06-15 (3 years ago)
Launch vehicle
CHANG ZHENG 2D
Launch site
Taiyaun Space Center, China (TSC)
Object type
Unknown
Shape & HBR
Box, 0.8 m
Radar Cross Section
2.000 m², Medium (>0.1 m² and < 1m²)

Expand to show TLE details & history
Last TLE update: 5 months ago

TLE from 5 months ago
0 OBJECT R
1 57019U 23085R   26022.68981189  .01333306  10996-2  18014-2 0  9994
2 57019  97.4617 149.7521 0004879 293.0266  67.0501 16.06690127145583
Epoch: 2026-01-22T16:33Z
TLE epoch observation values (Epoch: 2026-01-22T16:33:19.747Z)
Latitude
0.00002°
Longitude
139.38045°
Altitude
257.883 km
Speed
7.753 km/s
True Right ascension
09h 59m 00s
True Declination
0° 00' 00"
Sunlit
Object was in full shadow at epoch
Visualization orbit readout
Latitude
Unknown
Longitude
Unknown
Altitude
Unknown
Speed
Unknown
Apparent Right ascension
Unknown
Apparent Declination
Unknown
Sunlit
N/A
Visualization observer readout
Local Sidereal Time
00:24:57
Azimuth
Unknown
Elevation
Unknown
Doppler factor
Unknown
Orbital elements
Apogee altitude
256.028 km
Perigee altitude
249.557 km
Semi-major axis
6,630.93 km
Eccentricity
0.00049
Inclination
97.4617°
RAAN
149.7521°
Arg. of periapsis
293.0266°
True anomaly
67.1016°
Mean anomaly
67.0501°
Eccentric anomaly
67.07585°
Mean motion
4.01959 °/min
Orbital period
89.56 mins
BSTAR
0.0018014
Loading maneuver chart data...
Computing Atmospheric mass density...
Loading historical data...
Loading historical data...
Loading historical data...
Loading historical data...
Loading historical data...
Loading historical data...
Loading historical data...

Documentation

Showing up to 5 results
|